FENGYUN 1C DEB, 36259

Orbit data source: Space-Track

FENGYUN 1C DEB, 36259 is space debris in SSO originally from a launch on Mon, 10 May 1999 UTC launched from the Taiyaun Space Center, China (TSC). Fengyun 1C debris stems from the Chinese weather satellite Fengyun-1C, which was intentionally destroyed by a Chinese anti-satellite missile in 2007. This event dramatically increased the amount of space debris, with thousands of trackable fragments posing hazards to satellites and human spaceflight. The Fengyun 1C debris cloud has become a focal point in discussions about space sustainability and the need for international regulations to prevent the creation of new debris.

Loading next visibility...
Identifier
36259, 1999-025DWL
Orbit
SSO
Country
Flag of CNCN / PRC
Related business
Manufacturer
Unknown
Mission
Spacecraft
Bus & Motor
Unknown
Mass
Unknown
Launch date (UTC)
1999-05-10 (27 years ago)
Launch vehicle
Unknown
Launch site
Taiyaun Space Center, China (TSC)
Object type
Payload
Rocket body
Debris
Shape & HBR
Unknown shape, 0.1 m
Radar Cross Section
Small (<0.1 m²)

Expand to show TLE details & history
Last TLE update: 1 day ago

TLE from 1 day ago
0 FENGYUN 1C DEB
1 36259U 99025DWL 26144.33054353  .00007006  00000-0  14540-2 0  9992
2 36259  98.7951 283.3870 0004088 155.4182 234.9072 14.60485664745145
Epoch: 2026-05-24T07:55Z
TLE epoch observation values (Epoch: 2026-05-24T07:55:58.960Z)
Latitude
29.94704°
Longitude
-82.62931°
Altitude
697.049 km
Speed
7.509 km/s
True Right ascension
18h 33m 12s
True Declination
29° 47' 50"
Sunlit
Object was in full shadow at epoch
Visualization orbit readout
Latitude
Unknown
Longitude
Unknown
Altitude
Unknown
Speed
Unknown
Apparent Right ascension
Unknown
Apparent Declination
Unknown
Sunlit
N/A
Visualization observer readout
Local Sidereal Time
21:43:25
Azimuth
Unknown
Elevation
Unknown
Doppler factor
Unknown
Orbital elements
Apogee altitude
691.604 km
Perigee altitude
685.826 km
Semi-major axis
7,066.852 km
Eccentricity
0.00041
Inclination
98.7951°
RAAN
283.387°
Arg. of periapsis
155.4182°
True anomaly
234.86888°
Mean anomaly
234.9072°
Eccentric anomaly
234.88804°
Mean motion
3.65346 °/min
Orbital period
98.54 mins
BSTAR
0.001454
Loading maneuver chart data...
Computing Atmospheric mass density...
Loading historical data...
Loading historical data...
Loading historical data...
Loading historical data...
Loading historical data...
Loading historical data...
Loading historical data...

Documentation

Showing up to 5 results
|